Location: Crescent
(42.8242°N, 73.7329°W)
Time: 01:00:30
(UTC+00:00)

Explorer 7 - Pass Details

Date: 17 February 2026
Orbit: 430 x 541 km, 50.2° (Epoch: 10 March)

Event Time Altitude Azimuth Distance (km) Brightness Sun altitude
Rises 01:17:49 0° 301° (WNW) 2,554 11.2 -31.6°
Reaches altitude 10° 01:20:00 10° 306° (NW) 1,693 10.1 -32.0°
Enters shadow 01:20:46 15° 309° (NW) 1,396 9.5 -32.1°
Maximum altitude 01:23:47 56° 25° (NNE) 611 - -32.7°
Drops below altitude 10° 01:27:42 10° 104° (ESE) 1,753 - -33.4°
Sets 01:29:59 0° 109° (ESE) 2,656 - -33.8°
